This is the latest recevied weather packets stored in our database for station/object W8LMG. If no packets are shown the sender has not sent any weather packets the latest 10 day(s).
| Time | Temp. | Humidity | Pressure | Rain* | Wind** | Luminosity | Snow |
|---|---|---|---|---|---|---|---|
| 1788560002 | 21.11° C | 97% | 1018.6 hPa | 0 mm | - | 35 W/m² | - |
| 1788559697 | 21.11° C | 98% | 1018.7 hPa | 0 mm | - | 43 W/m² | - |
| 1788559396 | 21.11° C | 99% | 1018.2 hPa | 0 mm | - | 40 W/m² | - |
| 1788559092 | 21.11° C | 97% | 1018.7 hPa | 0 mm | - | 29 W/m² | - |
| 1788558787 | 20.56° C | 96% | 1018.7 hPa | 0 mm | - | 16 W/m² | - |
| 1788558483 | 20.56° C | 97% | 1018.8 hPa | 0 mm | - | 8 W/m² | - |
| 1788558178 | 21.11° C | 97% | 1017.9 hPa | 0 mm | - | 5 W/m² | - |
| 1788557876 | 21.11° C | 96% | 1018.6 hPa | 1.27 mm | - | 4 W/m² | - |
| 1788557572 | 21.11° C | 95% | 1018.9 hPa | 1.27 mm | - | 4 W/m² | - |
| 1788557268 | 21.67° C | 94% | 1019.5 hPa | 0 mm | - | 4 W/m² | - |
| 1788556967 | 22.22° C | 92% | 1019.4 hPa | 0 mm | - | 4 W/m² | - |
| 1788556663 | 23.89° C | 83% | 1019.6 hPa | 0 mm | - | 3 W/m² | - |
| 1788556357 | 24.44° C | 75% | 1019.9 hPa | 0 mm | - | 3 W/m² | - |
| 1788556052 | 25° C | 73% | 1019.6 hPa | 0 mm | - | 2 W/m² | - |
| 1788555747 | 25.56° C | 71% | 1019.6 hPa | 0 mm | - | 5 W/m² | - |
| 1788555443 | 26.67° C | 67% | 1019.5 hPa | 0 mm | - | 12 W/m² | - |
| 1788555139 | 27.78° C | 66% | 1019 hPa | 0 mm | - | 14 W/m² | - |
| 1788554843 | 28.89° C | 71% | 1018.6 hPa | 0 mm | - | 29 W/m² | - |
| 1788554531 | 28.89° C | 74% | 1018.3 hPa | 0 mm | - | 73 W/m² | - |
| 1788554227 | 29.44° C | 70% | 1018.2 hPa | 0 mm | - | 90 W/m² | - |
| 1788553924 | 30° C | 69% | 1017.7 hPa | 0 mm | - | 96 W/m² | - |
| 1788553619 | 30° C | 67% | 1017.4 hPa | 0 mm | - | 115 W/m² | - |
| 1788553310 | 30° C | 59% | 1017.2 hPa | 0 mm | - | 120 W/m² | - |
| 1788553010 | 30° C | 63% | 1017.5 hPa | 0 mm | - | 120 W/m² | - |
| 1788552704 | 30.56° C | 61% | 1017.3 hPa | 0 mm | - | 120 W/m² | - |
* Rain latest hour (hover to see other rain measurements)
** Current wind speed in m/s (hover to see current wind gust speed)